Location: Melbourne
(37.8170°S, 144.9670°E)
Time: 01:03:54
(UTC+11:00)

Daily predictions for brighter satellites

Satellite Brightness Start Highest point End
(mag) Time Altitude Azimuth Time Altitude Azimuth Time Altitude Azimuth
ATLAS 5 CENTAUR R/B 4.3 00:08:15 10° W 00:08:51 10° WNW 00:08:51 10° WNW
Iridium 4 Rocket 3.5 00:05:14 10° S 00:09:41 75° SSE 00:09:41 75° SSE
Meteor 2-1 Rocket 4.5 00:12:04 59° E 00:12:04 59° E 00:17:49 10° SSE
Cosmos 1500 Rocket 4.3 00:08:54 10° SSW 00:12:39 51° SW 00:12:39 51° SW
SPOT 1/Viking Rocket 4.5 00:10:47 10° S 00:15:40 41° WSW 00:16:42 37° W
Cosmos 2219 Rocket 4.3 00:13:36 10° SSE 00:17:15 17° SE 00:19:30 14° E
Meteor 2-12 Rocket 4.4 00:16:58 65° NW 00:17:44 73° W 00:23:58 10° S
H-2A R/B 3.9 00:17:34 10° SSW 00:21:09 24° WSW 00:21:49 23° W
Meteor 1-16 Rocket 4.1 00:22:50 74° WSW 00:22:50 74° WSW 00:28:09 10° S
NOSS 3-2 (C) 3.3 00:16:44 10° SW 00:23:13 72° WNW 00:23:19 72° NW
H-2A R/B 3.8 00:25:21 35° S 00:25:21 35° S 00:27:46 10° S
Cosmos 2221 3.5 00:26:43 43° SSE 00:26:43 43° SSE 00:29:43 10° S
RESURS DK-1 3.7 00:31:32 38° SSW 00:31:32 38° SSW 00:34:34 10° SSE
Cosmos 2151 4.1 00:27:48 10° SSW 00:30:52 42° SW 00:30:52 42° SW
Cosmos 2058 4.2 00:34:22 10° SSW 00:37:11 40° SSW 00:37:11 40° SSW
Meteor 1-11 4.3 00:34:06 10° SSW 00:39:46 69° W 00:39:46 69° W
Terra 2.6 00:37:19 10° S 00:41:39 47° WSW 00:41:39 47° WSW
Cosmos 2333 Rocket 4.1 00:38:11 10° S 00:42:37 22° SE 00:44:43 18° E
Spot 4 4.2 00:38:26 10° S 00:42:40 63° S 00:42:40 63° S
Cosmos 2322 3.7 00:39:16 10° SSW 00:44:38 77° SW 00:44:38 77° SW
NOSS 3-2 (A) 4.3 00:41:18 10° SW 00:46:26 35° W 00:46:26 35° W
Cosmos 1340 Rocket 4.4 00:48:09 10° S 00:50:34 34° S 00:50:34 34° S
Helios 1A Rocket 4.3 00:56:29 38° S 00:56:29 38° S 00:59:09 10° S
Cosmos 1633 Rocket 4.2 00:52:33 10° S 00:55:35 41° SSE 00:55:35 41° SSE
MOS 1-B Rocket 4.2 00:55:39 10° SSE 01:03:17 84° WSW 01:04:07 71° NW
ALOS 2 4.4 01:00:23 10° SE 01:02:47 25° ESE 01:02:47 25° ESE
Cosmos 2322 Rocket 4.2 01:01:42 10° WSW 01:04:39 17° W 01:04:39 17° W
Cosmos 2360 Rocket 2.9 01:01:13 10° SSW 01:05:53 45° W 01:05:53 45° W
Cosmos 2228 Rocket 4.2 01:09:24 41° SSE 01:09:24 41° SSE 01:12:25 10° SSE
Cosmos 371 Rocket 4.2 01:09:16 10° S 01:13:33 44° SE 01:13:33 44° SE
Lacrosse 5 2.8 01:09:19 10° SSW 01:14:14 43° SE 01:14:46 42° ESE
Cosmos 2142 Rocket 4.4 01:14:52 81° NW 01:15:08 83° W 01:21:38 10° S
COSMOS 2428 2.7 01:09:23 10° SSW 01:14:47 78° SSW 01:14:47 78° SSW
Geosat 4.3 01:16:30 10° SSE 01:21:03 65° SSW 01:21:03 65° SSW
H-2A R/B 4.3 01:19:53 10° SSW 01:23:22 17° WSW 01:25:11 15° W
Cosmos 1092 Rocket 4.3 01:18:17 10° SSW 01:24:19 53° W 01:24:19 53° W
CZ-2C R/B 4.5 01:21:36 10° SE 01:26:06 29° E 01:26:06 29° E
Cosmos 1626 4.4 01:25:39 10° SSW 01:27:13 22° SSW 01:27:13 22° SSW
Cosmos 2237 Rocket 3.3 01:24:04 10° S 01:29:24 38° ESE 01:30:37 34° E
CENTAUR R/B 2.3 01:26:49 10° SW 01:32:16 71° WSW 01:32:16 71° WSW
CZ-2C R/B 4.5 01:34:49 20° W 01:34:49 20° W 01:38:23 10° SW
SeaSat 1 4.4 01:37:50 19° WSW 01:37:50 19° WSW 01:39:56 10° SW
Cosmos 2219 4.1 01:37:56 37° WSW 01:38:36 39° WSW 01:43:56 10° S
PSLV R/B 4.4 01:44:34 53° SSW 01:44:34 53° SSW 01:48:06 10° SSW
Cosmos 2297 Rocket 2.5 01:50:45 54° E 01:50:45 54° E 01:55:56 10° SSE
Cosmos 2082 3.8 01:50:55 68° E 01:50:55 68° E 01:56:17 10° SSE
Cosmos 2227 Rocket 2.1 01:55:10 81° ESE 01:55:10 81° ESE 02:00:43 10° SSE
Cosmos 1300 4.3 02:01:28 34° S 02:01:28 34° S 02:03:47 10° S
Cosmos 2026 Rocket 4.4 01:54:12 10° SSW 02:00:09 49° W 02:00:09 49° W
CZ-2D R/B 4.2 01:58:00 13° ENE 02:00:49 20° ESE 02:04:34 10° SSE
Cosmos 2219 Rocket 2.3 01:56:05 10° SSW 02:01:12 65° WSW 02:01:12 65° WSW
Cosmos 1151 Rocket 4.1 02:03:28 42° SSW 02:03:28 42° SSW 02:06:32 10° S
Cosmos 1980 3.6 01:58:54 10° SSW 02:04:38 81° ESE 02:04:45 81° E
Cosmos 2279 Rocket 4.3 02:04:40 51° W 02:05:04 52° W 02:11:12 10° S
Landsat 5 4.2 02:09:45 10° SSE 02:13:22 56° SSE 02:13:22 56° SSE
Cosmos 2266 Rocket 4.0 02:08:39 10° S 02:15:01 74° E 02:15:59 62° NE
USA 215 3.2 02:14:05 32° NE 02:17:29 83° SE 02:24:07 10° SW
ERBS 4.5 02:19:43 28° SSE 02:19:43 28° SSE 02:21:38 10° SE
CZ-4B R/B 3.8 02:14:56 10° S 02:16:13 22° S 02:16:13 22° S
IRS-1C 4.3 02:18:29 59° ENE 02:19:07 65° ESE 02:24:29 10° S
Cosmos 540 Rocket 4.1 02:14:17 10° SSW 02:18:12 43° WSW 02:18:12 43° WSW
AQUA 4.0 02:20:23 71° SE 02:20:23 71° SE 02:25:02 10° S
ATLAS CENTAUR R/B 2.7 02:28:37 33° SE 02:28:37 33° SE 02:30:58 10° SE
Cosmos 2333 Rocket 2.5 02:21:34 10° SSW 02:26:42 53° W 02:26:42 53° W
In-Cosmos 22 Rocket 4.3 02:30:56 10° SSW 02:36:41 64° W 02:36:56 63° WNW
BREEZE-M DEB (TANK) 3.7 02:31:17 10° SW 02:37:14 52° SW 02:37:14 52° SW
ARGOS Delta rocket 3.7 02:38:36 79° SSW 02:38:36 79° SSW 02:43:07 10° S
ALOS 2 4.4 02:37:04 10° SSW 02:40:11 22° WSW 02:40:11 22° WSW
Meteor 2-10 3.9 02:42:26 70° W 02:42:26 70° W 02:47:34 10° S
Cosmos 1538 Rocket 3.8 02:37:06 10° SSW 02:42:26 89° ESE 02:42:48 78° NNE
SL-16 R/B 2.4 02:39:50 10° SSW 02:45:35 70° ESE 02:47:33 41° NE
ADEOS 3.6 02:45:12 62° NE 02:46:03 79° ESE 02:51:22 10° S
Cosmos 44 Rocket 4.3 02:41:25 10° SSW 02:46:15 45° SE 02:49:50 17° ENE
Cosmos 1869 Rocket 4.0 02:43:28 10° SSW 02:47:09 53° SW 02:47:09 53° SW
Lacrosse 5 3.9 02:52:36 10° WSW 02:53:54 16° WSW 02:53:54 16° WSW
ERS-1 4.3 02:59:34 70° NNW 03:00:07 81° WNW 03:05:15 10° SSW
NPP 4.4 03:00:40 36° W 03:00:40 36° W 03:05:20 10° SSW
Aureole 2 Rocket 3.9 02:57:46 10° SSW 02:59:54 33° SSW 02:59:54 33° SSW
Cosmos 1707 Rocket 4.3 03:02:03 41° WSW 03:02:03 41° WSW 03:05:51 10° S
Cosmos 1825 4.0 02:59:18 10° SSE 03:02:40 28° ESE 03:03:53 23° ENE
Cosmos 1892 3.6 03:00:40 10° SSW 03:03:32 41° SW 03:03:32 41° SW
ATLAS 5 CENTAUR R/B 4.3 02:54:53 31° NNW 03:05:25 82° NE 03:11:13 10° SE
CZ-2C R/B 4.1 03:01:14 10° S 03:06:15 34° WSW 03:07:10 32° W
ISS -0.4 03:10:38 10° ENE 03:10:38 10° ENE 03:10:47 10° ENE
Cosmos 2242 Rocket 3.5 03:09:55 69° W 03:09:58 70° W 03:14:27 10° S
USA 81 4.0 03:09:14 59° NW 03:10:03 68° W 03:15:24 10° S
ARIANE 5 R/B 2.4 03:09:25 56° N 03:10:34 82° WNW 03:15:50 10° SSW
Cosmos 2237 Rocket 3.4 03:08:29 10° SW 03:12:23 27° W 03:12:23 27° W
Resurs 1-4 Rocket 2.0 03:12:02 49° N 03:13:34 86° W 03:18:57 10° SSW
IRS-1D 3.5 03:12:48 53° N 03:14:04 77° WNW 03:19:31 10° SSW
Okean O Rocket 4.1 03:11:33 10° ENE 03:14:47 20° ESE 03:18:01 10° SSE
Cosmos 1777 Rocket 4.3 03:14:08 46° W 03:15:00 51° WSW 03:20:09 10° S
Cosmos 1680 Rocket 4.0 03:10:45 10° S 03:16:05 61° ESE 03:19:34 21° NE
ADEOS Rocket 4.5 03:11:37 10° NE 03:18:48 47° ESE 03:26:14 10° S
Cosmos 1733 Rocket 3.1 03:14:20 10° S 03:18:50 75° E 03:19:49 52° NNE
Aureole 1 Rocket 3.8 03:21:34 10° SSW 03:26:43 41° W 03:26:43 41° W
Cosmos 1455 3.4 03:27:19 30° WSW 03:27:19 30° WSW 03:30:17 10° SSW
BREEZE-M DEB (TANK) 3.5 03:29:40 21° S 03:30:22 25° SSE 03:32:50 10° E
Cosmos 2297 Rocket 3.9 03:32:33 17° W 03:34:46 21° SW 03:39:00 10° S
Cosmos 1818 3.6 03:33:08 43° NW 03:34:48 68° WSW 03:40:12 10° SSE
Cosmos 2112 Rocket 4.1 03:31:01 10° SSW 03:36:26 80° ESE 03:40:23 18° NNE
Cosmos 1400 Rocket 4.4 03:33:22 10° S 03:37:11 34° ESE 03:40:51 11° NE
Cosmos 2227 4.2 03:35:21 41° NNW 03:37:28 78° WSW 03:43:17 10° SSE
ADEOS II 4.5 03:34:01 10° ENE 03:37:59 22° ESE 03:41:58 10° SSE
Cosmos 1862 3.5 03:34:15 10° S 03:38:24 73° E 03:39:55 37° NNE
Cosmos 44 3.5 03:34:28 10° SSW 03:39:34 78° ESE 03:44:52 10° NE
Cosmos 2227 Rocket 4.3 03:36:59 11° W 03:39:45 15° SW 03:42:51 10° SSW
Cosmos 1898 Rocket 4.1 03:37:52 28° NNE 03:40:29 54° ENE 03:45:44 10° SSE
CZ-2D R/B 2.4 03:39:19 41° NW 03:40:31 48° W 03:45:37 10° SSW
SL-08 R/B 4.4 03:35:07 10° S 03:41:27 78° W 03:45:09 27° N
IRAS Rocket 4.2 03:40:09 29° N 03:43:10 73° WNW 03:48:49 10° SSW
Cosmos 1603 3.8 03:37:46 10° SSW 03:43:36 78° ESE 03:49:22 10° NNE
Cosmos 1869 4.4 03:48:26 29° W 03:48:39 29° WSW 03:52:14 10° SSW
Cosmos 2221 Rocket 4.4 03:46:59 22° NNE 03:49:39 50° E 03:54:07 10° SSE
SL-08 R/B 3.8 03:46:26 10° SSE 03:51:14 57° E 03:54:03 23° N
Cosmos 1908 Rocket 3.6 03:49:47 10° S 03:54:17 80° E 03:57:08 22° NNE
UNKNOWN OBJECT B 3.0 03:54:56 44° NW 03:55:42 52° W 03:59:40 10° SSW
Cosmos 2263 Rocket 3.0 03:54:32 18° N 03:58:27 45° ENE 04:03:49 10° SE
Cosmos 1553 Rocket 4.3 03:56:04 30° NW 03:58:48 49° W 04:04:51 10° S
USA 215 4.2 04:01:21 23° WNW 04:01:21 23° WNW 04:06:00 10° WSW
Cosmos 1386 Rocket 4.4 03:56:54 10° S 04:03:00 83° W 04:08:14 14° N
Cosmos 1242 Rocket 2.5 04:02:01 37° N 04:03:21 81° E 04:06:57 10° S
Cosmos 1943 4.0 04:00:50 10° SSW 04:06:24 53° ESE 04:11:54 10° NE
ATLAS CENTAUR R/B 3.6 04:05:06 10° WSW 04:06:39 12° SW 04:08:15 10° SSW
Cosmos 1315 Rocket 3.8 04:07:56 10° S 04:11:49 46° ESE 04:15:37 10° NNE
Sich 1 Rocket 3.8 04:09:03 10° SSW 04:13:36 54° W 04:16:14 24° NNW
CZ-4B R/B 3.3 04:09:55 10° NNE 04:15:13 78° ESE 04:20:36 10° S
Cosmos 858 Rocket 4.5 04:12:35 24° NNW 04:15:48 80° WSW 04:21:09 10° SSE
Okean 1-7 3.1 04:12:52 19° N 04:15:57 78° E 04:20:23 10° S
Cosmos 1709 Rocket 4.0 04:14:46 10° S 04:20:59 83° E 04:27:07 10° N
Cosmos 1703 Rocket 3.8 04:20:18 25° NNW 04:22:39 54° W 04:26:59 10° S
Cosmos 990 Rocket 4.2 04:19:20 17° N 04:23:27 74° ENE 04:28:46 10° SSE
SL-16 R/B 3.4 04:18:06 10° SSE 04:24:13 49° E 04:30:13 10° N
OTV 4 0.4 04:23:52 29° W 04:25:12 62° NNW 04:28:11 10° ENE
CZ-4B R/B 3.0 04:21:21 10° NNE 04:25:29 89° ESE 04:29:55 10° SSW
USA 229 DEB 3.7 04:18:54 10° SW 04:25:52 63° WNW 04:32:39 10° NNE
USA 229 3.7 04:19:00 10° SW 04:25:58 64° WNW 04:32:46 10° NNE
Cosmos 1408 4.0 04:24:39 10° SW 04:27:25 20° W 04:27:53 20° W
SL-16 R/B 3.9 04:26:04 10° WSW 04:28:59 14° W 04:29:21 14° WNW
Cosmos 2315 Rocket 4.1 04:27:35 13° NNW 04:33:27 76° W 04:39:56 10° S
ERS-2 3.1 04:35:32 21° NW 04:37:06 29° W 04:40:25 10° SW
Cosmos 1825 3.9 04:35:33 10° SW 04:38:00 16° W 04:38:46 16° WNW
Cosmos 192 4.3 04:34:41 10° SSW 04:39:43 78° WNW 04:44:39 10° NNE
NOSS 3-1 (A) 4.4 04:35:44 10° SSW 04:42:02 52° SE 04:47:42 10° NE
USA 161 2.3 04:40:46 10° SSE 04:43:02 36° E 04:45:08 10° N
Hubble Space Telescope 2.6 04:43:40 14° NNW 04:43:49 14° NNW 04:45:58 10° NNE
ISS -3.0 04:43:18 19° WNW 04:45:32 62° SW 04:48:51 10° SE
COBE Rocket 3.9 04:40:56 10° N 04:46:00 83° WNW 04:50:59 10° SSW
Cosmos 1461 3.6 04:41:21 10° SSW 04:46:05 67° ESE 04:50:43 10° NE
Landsat 4 3.9 04:42:49 10° SSE 04:46:44 77° E 04:50:35 10° N
Meteor 1-14 Rocket 4.4 04:41:56 10° SSW 04:47:52 63° W 04:53:37 10° N
Okean O Rocket 2.3 04:46:51 10° NNW 04:50:53 35° W 04:55:01 10° SSW
Meteor 1-25 Rocket 4.3 04:49:20 10° S 04:55:11 83° W 05:01:02 10° N
Cosmos 2084 4.3 04:51:17 10° SW 04:55:27 31° WNW 04:59:23 10° N
Okean-O 2.9 04:52:05 10° NNE 04:56:31 75° ESE 05:01:02 10° S
MOS 1 Rocket 3.1 04:52:40 10° N 04:57:02 80° WNW 05:01:42 10° SSW
Feng Yun 1-1 Rocket 4.3 04:53:49 10° NNE 04:59:14 83° ESE 05:04:46 10° SSW
UNK 3.8 04:55:21 10° S 05:00:06 76° WSW 05:04:48 10° NNW
Meteor 2-10 Rocket 4.1 04:58:42 11° NW 05:03:25 40° WSW 05:08:13 10° S
ADEOS Rocket 4.2 04:57:30 10° NNW 05:04:17 35° W 05:11:21 10° SSW
Meteor 1-10 Rocket 4.2 05:05:39 10° NNW 05:11:13 78° W 05:16:52 10° S
Nadezhda 1 Rocket 4.4 05:05:15 10° N 05:11:38 74° E 05:18:01 10° S
Okean 2 Rocket 4.1 05:11:41 10° SSW 05:15:29 27° W 05:19:15 10° NNW
Cosmos 2151 Rocket 3.7 05:11:22 10° SSW 05:15:56 64° W 05:20:26 10° N
ADEOS II 2.5 05:12:20 10° N 05:17:22 44° W 05:22:27 10° SSW
Meteor 1-27 Rocket 4.2 05:11:58 10° N 05:17:33 69° E 05:23:19 10° SSE
Tiangong 1 2.6 05:17:05 10° NNW 05:19:36 24° NNE 05:22:08 10° E
APEX 3.6 05:16:20 10° NNW 05:20:11 75° WSW 05:25:19 10° SSE
Cosmos 1633 4.2 05:17:24 10° S 05:20:59 41° E 05:24:31 10° NNE
Meteor 1-31 Rocket 2.8 05:18:40 10° N 05:22:34 84° WNW 05:26:33 10° SSW
Cosmos 1674 Rocket 3.6 05:21:47 10° NNW 05:26:06 71° W 05:30:31 10° S
ATLAS 3B CENTAUR R/B 4.2 05:21:33 10° NW 05:27:38 36° NNE 05:42:42 10° E
